[[{"header":{"parameterUnit":"m.s-1","parameterCategory":1,"la1":30.2991,"la2":30.254,"lo1":-89.0895,"lo2":-89.0444,"dy":0.0017,"dx":0.0017,"nx":28,"ny":28,"refTime":"2024-08-14T03:00:00:Z","depth":0,"parameterNumber":2,"parameterNumberName":"U-component_of_WINDS"},"data":[0,0,0,0,0,0,0,0,0,0,0,0,0,0,0,0,0,0,0,0,0,0,0,0,0,0,0,0,0,0,0,0,0,0,0,0,0,0,0,0,0,0,0,0,0,0,0,0,0,0,0,0,0,0,0,0,0,0,4.045,4.0451,0,4.0523,4.0524,4.0524,4.0428,4.0425,4.0421,4.0418,4.0495,4.05,4.0505,0,0,0,0,0,0,0,0,0,0,0,0,0,4.0228,4.0232,4.045,4.0451,4.0452,4.0523,4.0524,4.0525,4.0429,4.0425,4.0421,4.0417,4.0493,4.0499,4.0506,0,0,0,0,0,0,0,0,0,0,0,0,0,4.0315,4.0234,4.045,4.0412,4.041,4.0522,4.0524,4.0525,4.043,4.0425,4.0419,4.0415,4.0491,4.0499,4.0507,4.066,0,0,4.0531,4.0534,0,0,0,0,0,0,0,0,4.031,4.0323,4.0417,4.0415,4.0412,4.0461,4.0473,4.057,4.0431,4.0422,4.0418,4.0412,4.0488,4.0496,4.0521,4.0663,4.0667,4.0532,4.0536,4.054,4.0542,0,0,0,0,0,0,0,4.0304,4.0319,4.0479,4.0418,4.0416,4.0392,4.0399,4.0491,4.0484,4.0423,4.0416,4.0426,4.0486,4.0514,4.0522,4.0668,4.0531,4.0538,4.0543,4.0546,4.0937,4.0943,0,0,0,0,0,0,4.0302,4.0315,4.0476,4.0481,4.0347,4.04,4.0408,4.0451,4.0482,4.0482,4.043,4.0421,4.0503,4.0513,4.0525,4.0704,4.054,4.0547,4.0552,4.0932,4.0939,4.0945,0,0,0,0,0,0,4.0298,4.0318,4.0473,4.0396,4.0414,4.041,4.0459,4.0455,4.0483,4.0488,4.0486,4.046,4.0499,4.0513,4.0626,4.0706,4.0551,4.0558,4.0925,4.0934,4.0942,4.1066,0,0,0,0,0,0,4.0292,4.0317,4.0375,4.0398,4.0419,4.0574,4.0464,4.046,4.0496,4.0485,4.0515,4.0515,4.0496,4.0615,4.0634,4.0714,4.0564,4.0918,4.0929,4.0939,4.1055,4.1078,4.1097,0,0,0,0,0,4.0284,4.0408,4.0378,4.0398,4.0491,4.0579,4.0591,4.0565,4.0503,4.0561,4.0564,4.0515,4.0694,4.0627,4.0648,4.0731,4.0913,4.0926,4.0938,4.1045,4.1073,4.1097,0,0,0,0,0,0,4.0395,4.041,4.0378,4.0512,4.0545,4.0563,4.0635,4.0596,4.0647,4.0635,4.0601,4.0609,4.0729,4.0742,4.0667,4.088,4.0793,4.0811,4.0868,4.0894,4.0915,4.0909,4.0571,0,0,0,0,0,4.0435,4.0505,4.0514,4.0632,4.065,4.064,4.0678,4.0655,4.0688,4.0701,4.0712,4.0747,4.081,4.0853,4.0912,4.1056,4.1061,4.1124,4.1145,4.1162,4.1178,4.1253,4.128,4.0986,4.0986,4.0986,0,0,4.0518,4.0535,4.0582,4.0655,4.0677,4.075,4.0653,4.0734,4.0787,4.0714,4.082,4.083,4.0866,4.0994,4.1052,4.1008,4.126,4.1179,4.1192,4.1198,4.1269,4.1297,4.1321,4.0995,4.0993,4.0992,0,0,4.0707,4.0728,4.0827,4.0851,4.0886,4.0879,4.0903,4.0926,4.0929,4.1036,4.0981,4.1045,4.1156,4.1183,4.1211,4.1409,4.1364,4.1429,4.154,4.1613,4.1636,4.1657,4.1725,4.1751,4.1444,4.1445,4.1445,0,4.0806,4.0913,4.0883,4.0968,4.1001,4.0937,4.1037,4.1062,4.1115,4.114,4.109,4.1227,4.1247,4.138,4.1428,4.1454,4.1479,4.1425,4.1635,4.1656,4.1674,4.1739,4.1765,4.1452,4.1451,4.1451,4.145,0,4.1033,4.1108,4.1184,4.1235,4.1277,4.137,4.1353,4.1399,4.1373,4.1371,4.1479,4.15,4.1561,4.1592,4.1568,4.1721,4.1693,4.1641,4.1552,4.171,4.1771,4.1796,4.1463,4.146,4.1458,4.1456,0,0,4.1293,4.1326,4.1354,4.1376,4.1409,4.1467,4.1556,4.1615,4.1654,4.1693,4.1766,4.1861,4.1811,4.1844,4.1822,4.1887,4.204,4.1826,4.1826,4.1863,4.2208,4.2247,4.2276,4.2011,4.2015,4.2019,4.2205,0,4.1481,4.1633,4.1608,4.1756,4.1824,4.1763,4.184,4.1869,4.1869,4.1927,4.1927,4.1994,4.1925,4.1944,4.2005,4.2008,4.2108,4.1995,4.2077,4.2081,4.2069,4.2308,4.2349,4.2523,4.2228,4.2232,4.2235,0,4.1719,4.1765,4.192,4.194,4.1968,4.2038,4.2089,4.2145,4.2176,4.2171,4.2207,4.2173,4.2261,4.2172,4.2292,4.2215,4.2248,4.2254,4.226,4.2266,4.2167,4.2319,4.2578,4.2604,4.2273,4.227,4.2267,0,4.1891,4.1992,4.2097,4.2118,4.2145,4.2195,4.2209,4.2235,4.2271,4.2317,4.234,4.2395,4.2425,4.2469,4.245,4.2387,4.2573,4.2483,4.2571,4.2572,4.2612,4.261,4.2879,4.2636,4.2636,4.2635,4.2635,0,4.2102,4.2199,4.2174,4.2239,4.2344,4.2315,4.242,4.2427,4.245,4.2514,4.2466,4.2528,4.25,4.256,4.2546,4.2647,4.2661,4.2659,4.2654,4.2663,4.2663,4.2682,4.2669,4.2642,4.2641,4.2639,4.2638,0,4.2312,4.23,4.241,4.2426,4.2433,4.251,4.2524,4.2584,4.2579,4.2661,4.2679,4.2673,4.274,4.2726,4.2801,4.2791,4.2917,4.2898,4.2906,4.2901,4.2989,4.298,4.3279,4.3316,4.3051,4.3054,4.3056,0,4.2447,4.2519,4.2543,4.2582,4.2599,4.2663,4.27,4.2673,4.2713,4.2753,4.2808,4.2871,4.2919,4.303,4.3032,4.3089,4.3069,4.317,4.3077,4.3083,4.3068,4.3064,4.307,4.3188,4.3191,4.3194,4.3196,0,4.2686,4.2676,4.273,4.2782,4.2827,4.2867,4.2902,4.2937,4.2913,4.2961,4.3028,4.3066,4.3141,4.3203,4.3255,4.3269,4.3229,4.3225,4.3248,4.3257,4.3258,4.3256,4.2954,4.3218,4.3216,4.3214,4.3213,4.3212,4.2861,4.2922,4.2947,4.3009,4.3032,4.3066,4.3122,4.3125,4.3181,4.3239,4.322,4.3297,4.3325,4.339,4.341,4.3469,4.3432,4.3465,4.3474,4.3482,4.3492,4.325,4.3479,4.3479,4.3478,4.3477,4.3477,0,4.3096,4.3109,4.3166,4.3216,4.3264,4.3221,4.3258,4.3301,4.3369,4.3398,4.3446,4.3523,4.3583,4.359,4.3647,4.3693,4.3675,4.3708,4.3704,4.3707,4.3523,4.3497,4.3721,4.3721,4.3721,4.3721,4.3721,4.3721,4.3224,4.3324,4.3317,4.3427,4.3439,4.3513,4.3538,4.3568,4.3591,4.3679,4.3728,4.3732,4.3751,4.3809,4.3862,4.3862,4.3884,4.3924,4.3917,4.3745,4.3721,4.3697,4.3672,4.393,4.393,4.4096,4.4098,4.4099]},{"header":{"parameterUnit":"m.s-1","parameterCategory":1,"la1":30.2991,"la2":30.254,"lo1":-89.0895,"lo2":-89.0444,"dy":0.0017,"dx":0.0017,"nx":28,"ny":28,"refTime":"2024-08-14T03:00:00:Z","depth":0,"parameterNumber":3,"parameterNumberName":"V-component_of_WINDS"},"data":[0,0,0,0,0,0,0,0,0,0,0,0,0,0,0,0,0,0,0,0,0,0,0,0,0,0,0,0,0,0,0,0,0,0,0,0,0,0,0,0,0,0,0,0,0,0,0,0,0,0,0,0,0,0,0,0,0,0,-0.3079,-0.3079,0,-0.3067,-0.3067,-0.3067,-0.3088,-0.3089,-0.3089,-0.309,-0.3076,-0.3075,-0.3074,0,0,0,0,0,0,0,0,0,0,0,0,0,-0.312,-0.3119,-0.3079,-0.3079,-0.3079,-0.3067,-0.3067,-0.3067,-0.3088,-0.3089,-0.309,-0.309,-0.3076,-0.3075,-0.3074,0,0,0,0,0,0,0,0,0,0,0,0,0,-0.3104,-0.3119,-0.3079,-0.3088,-0.3089,-0.3067,-0.3067,-0.3067,-0.3088,-0.3089,-0.309,-0.3091,-0.3077,-0.3075,-0.3074,-0.3042,0,0,-0.3069,-0.3068,0,0,0,0,0,0,0,0,-0.3105,-0.3103,-0.3087,-0.3088,-0.3088,-0.308,-0.3076,-0.3059,-0.3087,-0.3088,-0.309,-0.3091,-0.3076,-0.3075,-0.307,-0.3042,-0.3041,-0.3069,-0.3068,-0.3067,-0.3067,0,0,0,0,0,0,0,-0.3106,-0.3104,-0.3075,-0.3087,-0.3087,-0.3092,-0.3091,-0.3073,-0.3076,-0.3088,-0.309,-0.3088,-0.3077,-0.3072,-0.307,-0.3041,-0.3069,-0.3067,-0.3066,-0.3066,-0.2988,-0.2986,0,0,0,0,0,0,-0.3107,-0.3104,-0.3075,-0.3074,-0.31,-0.3091,-0.309,-0.3082,-0.3077,-0.3077,-0.3087,-0.3089,-0.3074,-0.3072,-0.307,-0.3033,-0.3067,-0.3066,-0.3065,-0.2989,-0.2987,-0.2986,0,0,0,0,0,0,-0.3107,-0.3104,-0.3075,-0.309,-0.3086,-0.3089,-0.308,-0.3081,-0.3076,-0.3076,-0.3076,-0.3081,-0.3075,-0.3072,-0.3049,-0.3033,-0.3065,-0.3063,-0.299,-0.2988,-0.2987,-0.296,0,0,0,0,0,0,-0.3108,-0.3104,-0.3092,-0.3089,-0.3086,-0.3055,-0.3079,-0.308,-0.3073,-0.3076,-0.307,-0.3071,-0.3075,-0.3052,-0.3048,-0.3032,-0.3062,-0.2991,-0.2989,-0.2987,-0.2962,-0.2958,-0.2954,0,0,0,0,0,-0.311,-0.3084,-0.3091,-0.3088,-0.3071,-0.3054,-0.3052,-0.3059,-0.3072,-0.306,-0.306,-0.3071,-0.3036,-0.3049,-0.3045,-0.3028,-0.2992,-0.299,-0.2987,-0.2964,-0.2959,-0.2954,0,0,0,0,0,0,-0.3084,-0.3084,-0.3092,-0.3065,-0.306,-0.3058,-0.3043,-0.3052,-0.3043,-0.3045,-0.3053,-0.3052,-0.3028,-0.3026,-0.3041,-0.2998,-0.3016,-0.3013,-0.3,-0.2995,-0.299,-0.2991,-0.3061,0,0,0,0,0,-0.3076,-0.3062,-0.3063,-0.3039,-0.3036,-0.304,-0.3033,-0.3039,-0.3033,-0.3031,-0.303,-0.3024,-0.3012,-0.3003,-0.2992,-0.2963,-0.2962,-0.2949,-0.2945,-0.2941,-0.2938,-0.2923,-0.2917,-0.2978,-0.2978,-0.2978,0,0,-0.3057,-0.3056,-0.3047,-0.3034,-0.3031,-0.3017,-0.3038,-0.3022,-0.3012,-0.3028,-0.3007,-0.3006,-0.3,-0.2975,-0.2963,-0.2972,-0.2921,-0.2938,-0.2935,-0.2934,-0.292,-0.2914,-0.2909,-0.2976,-0.2976,-0.2977,0,0,-0.3017,-0.3014,-0.2995,-0.2991,-0.2986,-0.2989,-0.2984,-0.2982,-0.2982,-0.2961,-0.2974,-0.2962,-0.294,-0.2936,-0.2931,-0.289,-0.29,-0.2886,-0.2863,-0.2849,-0.2844,-0.284,-0.2826,-0.282,-0.2883,-0.2883,-0.2883,0,-0.2994,-0.2974,-0.2983,-0.2967,-0.2961,-0.2977,-0.2957,-0.2953,-0.2944,-0.294,-0.295,-0.2925,-0.2921,-0.2895,-0.2886,-0.2881,-0.2876,-0.2887,-0.2844,-0.284,-0.2836,-0.2823,-0.2817,-0.2882,-0.2882,-0.2882,-0.2882,0,-0.2947,-0.2933,-0.2918,-0.291,-0.2903,-0.2885,-0.2891,-0.2882,-0.2889,-0.2891,-0.287,-0.2868,-0.2856,-0.2851,-0.2856,-0.2826,-0.2831,-0.2843,-0.2861,-0.2829,-0.2816,-0.2811,-0.2879,-0.288,-0.288,-0.2881,0,0,-0.2889,-0.2888,-0.2882,-0.2879,-0.2875,-0.2865,-0.2848,-0.2838,-0.283,-0.2824,-0.281,-0.2793,-0.2804,-0.2798,-0.2804,-0.2791,-0.276,-0.2804,-0.2804,-0.2796,-0.2726,-0.2717,-0.2711,-0.2767,-0.2766,-0.2765,-0.2727,0,-0.2849,-0.282,-0.2828,-0.28,-0.2787,-0.2803,-0.2788,-0.2784,-0.2786,-0.2775,-0.2777,-0.2765,-0.278,-0.2777,-0.2765,-0.2766,-0.2746,-0.2769,-0.2753,-0.2753,-0.2754,-0.2705,-0.2695,-0.2659,-0.2722,-0.2721,-0.2721,0,-0.2798,-0.2791,-0.2761,-0.2761,-0.2756,-0.2743,-0.2735,-0.2725,-0.2721,-0.2724,-0.2718,-0.2727,-0.271,-0.2729,-0.2707,-0.2722,-0.2717,-0.2716,-0.2715,-0.2713,-0.2734,-0.2702,-0.2648,-0.2643,-0.2713,-0.2714,-0.2714,0,-0.2759,-0.2742,-0.2722,-0.272,-0.2719,-0.2709,-0.2708,-0.2706,-0.2699,-0.2692,-0.2689,-0.268,-0.2674,-0.2667,-0.2673,-0.2687,-0.265,-0.2669,-0.2651,-0.2651,-0.2642,-0.2643,-0.2587,-0.2639,-0.2639,-0.2639,-0.2639,0,-0.2713,-0.2694,-0.2705,-0.2693,-0.2672,-0.2682,-0.2662,-0.2662,-0.266,-0.2649,-0.2661,-0.265,-0.2659,-0.2648,-0.2653,-0.2634,-0.2632,-0.2633,-0.2634,-0.2632,-0.2631,-0.2627,-0.263,-0.2638,-0.2638,-0.2638,-0.2639,0,-0.2665,-0.2672,-0.2651,-0.2653,-0.2653,-0.2638,-0.2639,-0.2628,-0.2631,-0.2616,-0.2613,-0.2618,-0.2607,-0.2612,-0.26,-0.2603,-0.2579,-0.2583,-0.258,-0.2581,-0.2563,-0.2564,-0.2502,-0.2495,-0.2552,-0.2551,-0.2551,0,-0.2636,-0.2622,-0.2622,-0.2616,-0.2614,-0.2603,-0.2598,-0.2607,-0.26,-0.2596,-0.2585,-0.2575,-0.2567,-0.2548,-0.2551,-0.2542,-0.2546,-0.2525,-0.2545,-0.2543,-0.2546,-0.2547,-0.2545,-0.2521,-0.252,-0.252,-0.2519,0,-0.2582,-0.2587,-0.2578,-0.2571,-0.2564,-0.2559,-0.2554,-0.2548,-0.2558,-0.255,-0.2538,-0.2533,-0.2521,-0.251,-0.2503,-0.2502,-0.2512,-0.2513,-0.2508,-0.2505,-0.2504,-0.2505,-0.2569,-0.2514,-0.2515,-0.2515,-0.2515,-0.2516,-0.2543,-0.2532,-0.2531,-0.2521,-0.2519,-0.2515,-0.2505,-0.2508,-0.2499,-0.249,-0.2496,-0.2483,-0.2481,-0.2472,-0.247,-0.246,-0.2468,-0.2461,-0.2459,-0.2458,-0.2455,-0.2506,-0.2458,-0.2458,-0.2459,-0.2459,-0.2459,0,-0.249,-0.2491,-0.2482,-0.2476,-0.2469,-0.248,-0.2476,-0.2469,-0.2458,-0.2455,-0.2448,-0.2435,-0.2426,-0.2428,-0.2419,-0.2411,-0.2415,-0.2408,-0.2409,-0.2409,-0.2448,-0.2453,-0.2405,-0.2405,-0.2405,-0.2405,-0.2405,-0.2405,-0.2462,-0.2444,-0.2449,-0.243,-0.243,-0.2418,-0.2415,-0.2412,-0.241,-0.2395,-0.2388,-0.239,-0.2389,-0.2381,-0.2373,-0.2374,-0.237,-0.2361,-0.2364,-0.24,-0.2406,-0.2411,-0.2415,-0.236,-0.236,-0.2325,-0.2325,-0.2325]}]]